Temp
57 57 57 57 57 55 50 42 41 58 57 47 42 39 47 51 52 53 52 51 48 45 46 44 46 42 45 50 50 44 45 41 37 45 49 52 49 46 46 37 37 37 35 35
57 56 56 56 56 55 43 39 41 55 54 36 37 45 49 50 48 48 49 47 48 49 45 40 46 44 50 51 48 43 45 39 33 39 44 49 46 48 48 45 41 37 33 36
56 56 56 56 56 55 44 40 35 40 43 41 38 39 43 44 50 49 50 47 48 44 43 46 43 43 48 50 49 54 49 40 37 33 37 44 42 46 46 43 34 35 38 43
56 56 56 56 55 55 46 40 35 39 31 36 38 40 43 41 40 46 47 42 43 40 37 39 39 41 43 49 51 47 42 34 38 41 43 43 44 44 45 41 42 36 40 43
56 56 56 55 55 54 44 36 34 39 35 40 38 38 37 39 41 42 41 39 41 41 36 36 33 37 38 39 42 40 41 34 37 35 42 43 41 44 45 45 45 44 44 41
56 56 55 55 54 51 40 41 42 39 37 35 32 33 37 39 41 43 44 41 38 37 39 42 42 42 42 41 36 36 35 33 31 26 37 39 33 37 41 39 40 40 33 39
56 56 56 55 54 51 42 42 39 34 30 34 35 39 41 39 40 37 42 42 38 42 47 45 43 41 41 41 40 41 34 33 32 26 33 24 35 44 44 40 41 42 42 43
56 55 56 55 55 54 44 43 40 35 27 35 38 39 39 39 39 39 40 42 44 44 41 33 30 32 34 38 41 40 41 34 26 24 24 32 36 39 38 37 35 42 40 42
56 55 55 55 55 54 45 43 43 38 30 30 41 36 37 31 30 33 39 45 45 42 35 30 23 23 29 30 35 43 40 39 31 26 22 23 33 41 47 47 29 43 44 42
56 56 55 55 55 54 46 43 46 39 32 37 39 34 33 38 33 29 33 37 38 40 29 27 23 24 34 26 26 29 30 32 28 29 25 30 38 43 46 31 31 44 45 43
56 56 55 55 55 54 46 43 47 40 34 37 43 44 37 37 35 28 34 32 35 32 27 28 28 27 29 28 32 31 28 24 23 25 23 24 45 43 35 39 42 43 41 41
55 55 55 55 55 54 50 43 47 47 37 37 44 46 48 45 44 37 36 33 34 35 28 27 26 22 23 25 18 34 26 32 29 30 27 40 43 40 44 44 42 42 41 44
54 54 54 55 54 54 50 41 42 40 35 35 37 40 47 48 48 48 33 35 40 37 40 32 28 21 28 19 23 25 32 36 27 29 34 37 42 45 43 44 43 45 45 44
55 55 55 55 54 54 51 41 43 40 36 25 32 48 43 50 47 47 46 43 43 41 36 30 21 23 31 25 29 27 31 33 30 30 35 38 41 41 43 45 45 45 45 44
55 54 55 54 54 53 48 43 43 44 37 25 31 39 44 46 45 46 46 43 39 34 30 31 26 29 31 29 29 27 33 31 26 27 37 36 37 42 44 43 42 42 40 39
54 54 54 54 53 52 42 35 42 45 46 35 22 37 38 42 44 43 41 41 38 36 34 33 33 35 32 23 21 32 39 39 39 35 40 41 42 42 43 41 39 40 38 39
54 53 53 53 52 43 38 35 41 48 45 33 26 24 36 41 39 38 38 39 40 38 35 32 29 31 34 30 22 34 39 43 42 43 40 35 40 37 40 39 39 39 39 38
53 53 53 52 52 48 39 43 49 45 38 36 28 24 29 37 32 30 40 36 37 35 33 31 28 31 29 25 31 35 39 41 41 40 39 38 37 38 37 37 37 35 34 34
52 53 51 45 40 35 38 50 50 44 39 29 29 23 19 36 33 32 34 37 29 33 30 28 30 27 25 31 33 34 38 39 39 38 38 36 35 34 33 33 33 32 33 33
51 44 38 31 35 49 48 42 35 36 34 34 29 31 24 32 28 24 29 30 27 18 26 31 29 26 37 39 40 39 40 40 38 33 32 31 29 30 30 31 33 34 33 33
39 33 33 39 47 41 33 31 30 31 26 31 33 30 29 33 27 25 28 22 28 22 23 23 16 21 32 38 38 39 41 41 38 36 34 32 30 31 32 33 35 34 34 32
40 38 42 40 35 32 29 25 23 25 20 25 27 28 30 31 33 29 26 26 25 17 28 24 16 29 36 37 38 39 39 38 36 36 34 33 34 34 34 34 34 34 34 34
42 36 33 32 31 26 23 11 22 15 28 30 29 27 29 30 30 29 26 24 23 28 20 20 28 34 37 36 38 38 38 37 36 34 34 35 35 36 35 34 35 34 33 33
33 31 25 26 20 23 19 21 24 29 30 31 30 25 32 33 26 20 23 26 23 18 11 22 28 33 36 37 37 37 35 35 33 32 34 33 33 34 36 35 34 32 30 31
31 31 25 24 25 22 26 29 30 34 35 33 28 30 30 28 24 23 21 20 21 21 22 30 31 34 35 35 35 33 32 32 31 33 32 32 33 33 33 33 32 30 30 29
31 30 26 27 25 21 22 25 29 35 35 33 31 22 21 22 18 20 23 12 16 23 29 32 33 33 35 34 34 32 31 29 31 32 34 33 33 31 31 32 30 28 29 27
30 29 29 23 23 26 29 31 32 37 33 21 25 24 23 21 11 14 24 22 27 33 34 33 35 34 33 33 31 32 30 31 31 32 33 31 33 33 31 26 27 26 27 25
MSLP
1027.07 1026.47 1025.75 1024.84 1023.93 1022.87 1021.64 1021.80 1020.83 1018.34 1017.63 1018.50 1019.55 1020.63 1020.53 1020.48 1020.14 1019.97 1019.68 1019.35 1019.42 1019.45 1019.22 1018.95 1018.85 1019.46 1019.82 1019.66 1019.51 1019.36 1019.16 1018.57 1017.53 1015.85 1014.79 1014.16 1014.13 1014.57 1015.08 1016.23 1016.62 1016.65 1016.50 1017.67
1027.34 1026.77 1026.15 1025.15 1024.34 1023.92 1023.75 1023.38 1022.11 1019.33 1018.64 1021.21 1021.82 1021.26 1021.36 1021.29 1021.15 1021.18 1021.04 1020.93 1020.98 1020.62 1020.46 1020.39 1019.87 1020.12 1020.43 1020.16 1020.02 1020.06 1019.88 1019.39 1018.67 1017.04 1016.17 1015.27 1015.29 1015.46 1015.94 1016.29 1016.79 1017.26 1017.54 1018.45
1027.62 1027.02 1026.47 1025.54 1024.56 1023.62 1023.65 1023.73 1023.90 1022.97 1022.51 1023.33 1023.01 1022.93 1022.49 1022.38 1022.09 1022.10 1022.21 1022.26 1022.03 1021.80 1021.51 1021.33 1021.13 1021.28 1021.22 1020.89 1020.65 1020.46 1020.34 1020.20 1019.66 1018.95 1018.21 1017.75 1016.95 1016.55 1016.55 1017.14 1017.85 1017.99 1017.80 1018.48
1027.92 1027.52 1026.89 1025.89 1024.92 1023.69 1023.57 1024.69 1025.85 1025.58 1025.87 1025.13 1024.73 1023.91 1023.90 1023.72 1023.67 1023.32 1023.39 1023.62 1023.80 1023.84 1023.33 1022.79 1022.76 1022.79 1022.25 1021.60 1021.64 1021.46 1021.74 1021.36 1020.65 1019.85 1019.05 1018.52 1018.06 1017.65 1017.47 1017.60 1017.85 1018.50 1018.42 1018.79
1028.22 1027.69 1027.10 1026.41 1025.58 1024.21 1024.46 1025.96 1026.60 1026.42 1026.51 1026.01 1025.77 1025.51 1025.67 1025.22 1024.94 1024.77 1024.79 1025.14 1025.01 1024.69 1024.92 1025.19 1024.66 1024.53 1023.88 1023.28 1022.80 1022.82 1022.75 1022.42 1021.87 1020.89 1019.81 1018.97 1018.41 1018.04 1017.74 1017.96 1018.13 1018.37 1019.01 1019.80
1028.49 1028.25 1027.72 1027.32 1026.72 1025.62 1026.38 1026.70 1026.67 1027.15 1027.62 1027.16 1026.82 1027.30 1026.94 1026.40 1026.17 1025.89 1025.95 1025.95 1025.82 1025.56 1025.68 1025.55 1025.15 1024.89 1024.60 1024.28 1024.24 1024.08 1024.05 1023.57 1023.24 1022.10 1021.01 1019.82 1019.68 1019.80 1018.58 1019.12 1019.56 1019.71 1020.43 1021.39
1028.84 1028.55 1028.15 1027.85 1027.52 1027.19 1027.55 1027.64 1027.53 1027.89 1028.61 1027.99 1027.89 1027.71 1027.45 1027.17 1026.97 1026.86 1026.56 1026.43 1026.39 1026.13 1025.57 1025.09 1024.41 1024.02 1023.91 1023.99 1023.78 1024.05 1024.22 1024.18 1023.98 1023.51 1022.44 1021.68 1022.00 1021.00 1020.40 1020.42 1021.08 1021.34 1021.62 1021.74
1029.11 1028.91 1028.60 1028.47 1028.17 1027.87 1027.95 1028.01 1028.11 1028.55 1029.07 1028.61 1028.10 1028.03 1027.79 1027.56 1027.54 1027.16 1027.02 1026.74 1026.55 1026.19 1026.01 1025.90 1025.31 1024.35 1023.95 1023.41 1023.23 1023.21 1023.67 1024.41 1024.70 1024.16 1023.60 1022.50 1022.01 1022.10 1022.12 1021.66 1022.25 1022.27 1022.43 1022.24
1029.29 1029.17 1029.13 1028.94 1028.82 1028.40 1028.46 1028.50 1028.37 1028.76 1029.18 1029.08 1028.49 1028.29 1028.29 1028.40 1028.58 1028.16 1027.69 1026.92 1026.63 1026.54 1026.85 1026.89 1026.89 1026.14 1025.20 1024.50 1023.45 1022.65 1023.40 1024.03 1024.61 1024.61 1024.40 1023.54 1023.43 1022.68 1021.49 1020.92 1022.29 1022.47 1022.26 1022.11
1029.44 1029.39 1029.36 1029.32 1029.12 1028.92 1029.04 1029.11 1028.67 1029.07 1029.50 1028.84 1028.57 1028.52 1028.68 1028.63 1028.92 1029.07 1028.59 1028.28 1027.57 1027.26 1027.89 1028.07 1027.84 1027.25 1026.12 1025.83 1025.13 1024.38 1024.41 1024.84 1025.14 1024.78 1024.53 1023.74 1023.37 1022.49 1021.57 1021.80 1022.91 1022.40 1022.49 1022.42
1029.42 1029.49 1029.52 1029.47 1029.31 1029.33 1029.43 1029.51 1029.07 1029.46 1029.79 1029.21 1028.59 1028.48 1028.46 1028.51 1028.75 1029.31 1029.07 1028.94 1028.49 1028.44 1028.73 1028.97 1028.94 1028.33 1027.88 1027.33 1026.57 1025.79 1025.74 1025.71 1025.62 1025.27 1024.59 1023.90 1023.24 1022.82 1023.37 1023.22 1022.50 1022.44 1022.40 1022.30
1029.42 1029.42 1029.58 1029.51 1029.45 1029.58 1029.60 1029.86 1029.65 1029.55 1030.04 1029.55 1028.70 1028.22 1027.88 1027.90 1028.15 1028.85 1029.00 1029.16 1029.19 1028.92 1029.18 1029.61 1029.80 1029.87 1029.06 1028.45 1027.85 1026.61 1026.63 1026.24 1026.25 1026.03 1025.00 1023.41 1022.99 1023.15 1022.88 1022.71 1022.75 1022.48 1022.24 1022.00
1029.42 1029.44 1029.50 1029.54 1029.51 1029.57 1029.79 1030.14 1030.20 1030.24 1030.42 1029.78 1028.94 1027.92 1027.17 1027.07 1027.28 1027.67 1028.82 1028.71 1028.47 1028.86 1029.06 1029.79 1030.10 1030.35 1029.50 1029.30 1028.28 1027.42 1026.78 1026.13 1025.89 1025.57 1024.67 1024.01 1023.35 1022.35 1022.48 1022.47 1022.30 1022.09 1022.09 1021.90
1029.29 1029.40 1029.43 1029.48 1029.43 1029.62 1029.70 1030.18 1030.26 1030.57 1030.95 1030.80 1029.23 1027.63 1027.26 1026.51 1026.81 1027.24 1027.42 1027.87 1028.04 1028.65 1029.23 1029.90 1030.57 1030.43 1029.28 1028.99 1028.21 1027.84 1027.13 1026.53 1025.59 1025.10 1024.39 1023.75 1022.90 1022.73 1022.42 1022.05 1022.07 1022.14 1022.19 1022.41
1029.07 1029.23 1029.27 1029.40 1029.40 1029.55 1029.74 1030.02 1029.93 1030.07 1031.03 1031.29 1029.85 1028.23 1026.84 1026.30 1026.54 1026.71 1027.00 1027.57 1028.20 1028.82 1029.45 1029.89 1030.03 1029.44 1029.12 1028.42 1028.04 1027.06 1026.14 1025.38 1025.29 1024.49 1023.92 1023.78 1023.25 1022.70 1022.52 1022.53 1022.69 1022.74 1022.67 1022.36
1028.82 1028.96 1028.99 1029.14 1029.37 1029.58 1030.01 1030.11 1029.65 1029.69 1030.10 1030.79 1030.98 1028.88 1027.49 1026.87 1026.54 1026.61 1026.90 1027.21 1027.90 1028.51 1029.26 1029.55 1029.23 1028.53 1028.62 1028.41 1027.33 1025.17 1024.48 1024.19 1024.13 1023.77 1023.18 1023.27 1022.85 1022.86 1022.79 1023.08 1023.38 1023.44 1023.50 1023.37
1028.48 1028.64 1028.74 1029.01 1029.18 1029.83 1030.14 1030.04 1029.97 1029.60 1029.93 1030.76 1031.05 1029.89 1028.05 1027.02 1026.99 1027.04 1027.26 1027.47 1027.75 1028.20 1028.99 1028.91 1028.75 1028.32 1028.16 1027.68 1026.18 1024.53 1023.87 1023.43 1022.99 1022.69 1022.77 1022.91 1022.90 1023.28 1023.50 1023.64 1023.73 1023.79 1023.86 1023.84
1028.12 1028.37 1028.58 1028.86 1029.17 1029.59 1029.80 1029.44 1029.50 1029.85 1030.49 1030.99 1031.19 1030.26 1028.99 1027.40 1027.61 1027.93 1027.66 1028.03 1028.25 1028.42 1028.54 1028.37 1028.13 1027.66 1027.45 1026.36 1023.85 1023.59 1023.13 1022.66 1022.59 1022.60 1022.55 1022.88 1023.27 1023.48 1023.74 1023.93 1024.03 1024.05 1024.01 1023.88
1027.99 1028.23 1028.54 1029.25 1029.61 1030.01 1029.50 1028.67 1029.02 1029.67 1030.55 1030.91 1030.80 1030.33 1029.35 1027.78 1027.92 1028.22 1028.29 1028.32 1028.69 1028.24 1028.24 1027.78 1027.53 1026.84 1025.89 1023.62 1023.17 1022.95 1022.72 1022.47 1022.39 1022.32 1022.60 1023.06 1023.40 1023.71 1024.09 1024.30 1024.30 1024.22 1024.16 1024.14
1027.96 1028.61 1029.18 1029.67 1029.79 1029.28 1029.31 1029.37 1029.88 1030.07 1029.97 1030.10 1029.82 1029.51 1029.10 1028.40 1028.39 1028.77 1028.97 1028.73 1028.73 1028.45 1027.47 1027.05 1026.66 1025.38 1023.47 1022.46 1021.86 1021.92 1022.01 1022.12 1022.23 1022.52 1022.91 1023.33 1023.67 1024.02 1024.25 1024.32 1024.28 1024.40 1024.39 1024.21
1028.43 1029.10 1029.56 1029.61 1029.46 1029.68 1029.91 1030.18 1030.34 1030.15 1030.03 1029.55 1028.91 1028.74 1028.49 1027.97 1028.32 1028.64 1028.61 1028.68 1028.46 1028.37 1027.50 1027.12 1025.93 1024.44 1022.28 1021.34 1021.30 1021.22 1021.71 1022.11 1022.38 1022.63 1022.99 1023.36 1023.68 1023.94 1024.13 1024.22 1024.28 1024.35 1024.23 1024.16
1027.86 1028.55 1029.14 1029.57 1029.73 1030.06 1030.37 1030.15 1030.22 1030.08 1029.36 1028.65 1028.25 1027.94 1028.11 1027.98 1027.72 1028.30 1028.49 1028.52 1028.63 1027.91 1027.06 1026.87 1025.69 1022.83 1021.52 1021.44 1021.56 1021.69 1021.92 1022.15 1022.45 1022.74 1023.04 1023.32 1023.54 1023.68 1023.84 1023.99 1024.15 1024.21 1024.15 1024.11
1028.07 1028.62 1029.23 1029.61 1029.72 1029.84 1029.74 1029.63 1029.17 1028.91 1027.93 1027.22 1027.22 1027.49 1027.54 1027.76 1028.02 1028.53 1028.73 1028.53 1028.03 1027.33 1026.93 1025.86 1023.89 1022.15 1021.75 1021.55 1021.55 1021.78 1021.88 1022.13 1022.53 1022.82 1022.99 1023.20 1023.37 1023.49 1023.70 1023.86 1023.94 1024.03 1024.04 1024.07
1027.68 1028.00 1028.53 1028.72 1028.79 1028.41 1027.54 1027.09 1026.71 1026.39 1026.20 1026.29 1026.59 1027.38 1027.48 1027.79 1028.42 1028.48 1028.56 1027.98 1027.52 1026.94 1026.03 1024.67 1022.64 1021.56 1021.33 1021.49 1021.64 1021.78 1022.12 1022.33 1022.61 1022.82 1022.99 1023.17 1023.31 1023.45 1023.61 1023.75 1023.85 1024.03 1024.12 1024.17
1026.90 1027.11 1026.93 1027.01 1026.13 1026.05 1025.87 1025.73 1025.66 1025.19 1025.13 1025.76 1026.49 1027.08 1027.50 1027.79 1028.11 1027.96 1027.98 1027.67 1026.49 1025.44 1024.14 1022.70 1021.63 1021.15 1021.11 1021.41 1021.64 1021.92 1022.22 1022.47 1022.65 1022.78 1022.92 1023.10 1023.25 1023.45 1023.61 1023.73 1023.92 1024.07 1024.09 1024.18
1025.86 1025.78 1025.78 1025.36 1025.70 1025.70 1025.65 1025.07 1024.72 1024.42 1024.82 1025.53 1026.08 1026.92 1027.38 1027.32 1027.25 1027.29 1026.68 1026.17 1024.42 1023.18 1022.35 1021.53 1021.10 1021.19 1021.12 1021.29 1021.46 1021.71 1021.97 1022.18 1022.44 1022.59 1022.70 1022.89 1023.11 1023.41 1023.48 1023.65 1023.91 1023.99 1024.08 1024.18
1024.46 1024.61 1024.79 1025.12 1024.66 1024.51 1024.27 1024.12 1023.87 1023.85 1024.58 1025.43 1025.57 1026.25 1026.30 1026.46 1026.35 1025.86 1024.59 1023.30 1022.50 1021.84 1021.44 1021.11 1020.83 1020.78 1020.81 1020.95 1021.26 1021.53 1021.70 1021.89 1022.07 1022.27 1022.49 1022.71 1022.94 1023.09 1023.37 1023.74 1023.96 1023.96 1024.04 1024.17
Wind_Speed
20 23 25 26 27 28 9 4 4 7 4 5 3 3 3 4 6 7 6 3 5 4 6 4 6 4 2 6 3 3 3 1 4 7 1 1 2 1 3 5 5 1 4 2
18 21 24 25 25 20 4 3 3 6 6 5 5 2 4 4 7 6 6 7 6 6 4 4 2 5 1 4 4 2 4 2 4 4 6 7 5 3 4 0 3 3 3 4
18 19 22 24 26 25 3 3 5 7 7 1 3 5 5 4 7 5 7 5 6 5 4 4 3 6 7 5 2 7 3 3 5 5 2 5 6 5 3 4 2 2 4 6
16 18 21 24 27 28 4 5 1 3 4 6 6 4 5 11 7 7 9 6 10 7 4 8 5 8 6 7 8 6 4 3 4 6 8 4 5 6 7 5 7 5 3 6
16 19 21 24 26 24 6 4 3 5 3 4 6 8 8 9 6 5 5 6 8 7 4 3 5 7 4 5 7 5 6 4 6 5 9 11 11 11 12 11 8 9 6 2
14 16 17 19 22 14 5 4 4 4 6 5 5 3 5 7 5 5 8 6 5 5 6 8 8 7 8 8 3 4 3 1 4 5 6 7 3 12 9 15 12 4 7 2
12 15 17 18 19 13 2 2 2 4 2 4 3 3 4 6 4 1 6 3 4 3 7 8 8 10 13 10 12 8 4 3 2 4 6 3 5 12 12 15 13 11 8 9
9 12 14 15 16 15 4 3 4 3 2 3 7 8 4 6 8 4 2 3 2 4 6 4 7 5 2 5 9 11 12 5 2 2 2 3 9 10 7 5 7 10 10 9
6 9 11 12 13 13 4 3 2 3 4 2 3 3 4 2 4 7 4 6 6 3 2 3 2 3 4 4 8 4 5 6 5 1 0 3 2 10 18 5 4 9 11 10
4 5 7 9 11 11 4 2 3 4 2 3 3 2 1 3 2 1 4 6 6 4 3 2 2 3 4 3 5 4 4 2 5 7 4 1 3 12 9 1 6 12 7 8
1 2 4 6 9 10 4 3 4 3 1 5 2 3 1 2 2 2 4 5 5 4 3 2 3 3 3 3 4 3 3 2 3 4 2 5 11 5 6 7 5 6 3 3
2 1 2 5 5 6 4 2 3 2 2 6 2 6 8 5 5 3 2 3 2 3 2 2 2 3 3 1 3 5 2 2 3 5 6 10 3 2 6 5 4 4 5 7
2 1 2 4 4 3 3 0 1 3 2 5 3 4 5 4 7 6 4 3 4 2 1 2 2 2 2 1 5 2 6 4 2 5 4 7 11 13 3 1 4 6 5 7
4 3 3 3 3 3 3 1 1 3 1 1 7 3 5 5 3 7 7 6 3 2 3 2 2 3 3 4 4 2 6 4 6 7 9 7 7 4 7 9 6 7 8 7
6 6 5 3 3 3 1 2 3 3 4 3 6 8 6 3 4 9 7 6 4 2 1 1 4 3 2 4 1 7 5 7 5 7 8 6 7 6 5 6 8 11 14 17
6 6 6 4 4 2 3 4 3 4 3 2 4 5 5 6 6 4 5 5 3 3 3 2 4 4 2 2 5 6 10 4 6 6 6 7 8 1 7 6 10 11 11 11
9 7 7 4 6 3 3 5 4 2 3 2 4 6 6 3 2 2 2 1 1 3 2 4 3 3 3 3 9 3 7 13 11 12 5 1 5 4 5 7 9 11 9 9
8 6 4 3 3 1 3 4 6 4 4 1 3 6 5 2 1 0 1 2 1 1 3 2 3 2 3 8 7 4 10 10 6 3 3 3 2 4 6 7 7 8 9 10
2 3 6 4 2 1 4 6 8 2 3 3 3 3 5 2 1 1 1 2 2 3 4 4 3 3 8 10 8 7 10 6 5 2 5 6 6 6 5 5 6 7 9 10
10 4 3 1 3 2 4 4 2 1 1 2 4 3 5 2 0 2 1 1 3 2 5 1 4 6 14 13 13 8 6 6 4 3 4 3 3 3 4 5 5 5 6 8
3 2 3 3 3 2 2 2 3 2 3 3 4 7 5 3 3 3 3 3 2 3 6 4 3 5 6 7 4 5 7 6 5 5 2 2 2 2 3 3 4 6 8 7
7 6 4 2 2 2 4 4 2 4 6 4 4 5 5 3 2 2 2 2 0 6 1 2 4 6 6 6 7 5 6 7 5 3 2 2 1 3 2 2 3 5 6 6
2 3 3 3 3 6 7 8 4 3 4 5 3 1 4 2 3 0 1 3 5 2 1 5 6 4 1 6 5 6 5 6 5 2 2 0 2 1 1 3 1 2 5 6
4 5 7 7 5 7 7 6 5 6 4 5 4 2 3 2 2 3 3 5 1 3 2 6 5 7 5 6 4 5 4 5 4 2 2 2 2 0 3 2 2 3 3 4
4 5 7 10 6 3 5 5 2 3 4 5 3 3 3 2 3 4 1 3 6 6 5 5 4 3 5 6 5 5 5 4 3 2 3 4 3 1 3 3 2 2 1 2
5 6 5 3 4 3 2 3 4 4 4 3 3 3 2 6 5 4 8 5 8 5 4 4 2 3 5 6 6 6 6 5 5 5 5 4 2 4 4 2 2 1 1 2
5 3 3 3 1 5 5 5 4 4 4 4 3 6 8 1 2 4 6 7 3 4 4 3 4 5 8 7 6 6 5 5 6 5 5 4 4 3 2 2 2 2 1 1
Wind_Direction
357 355 353 351 350 350 19 348 43 282 20 53 56 65 60 18 3 3 353 43 20 13 349 324 19 100 65 341 348 11 53 273 271 240 258 188 177 14 116 118 302 326 143 28
358 354 352 349 349 360 325 22 290 319 62 63 348 100 71 70 22 15 7 22 3 12 312 345 55 108 118 29 53 48 337 332 323 331 347 1 54 4 50 256 84 252 116 168
359 356 354 350 348 345 72 60 24 332 31 13 71 9 10 107 30 52 6 29 35 359 344 360 351 39 9 329 12 351 169 253 188 208 169 331 313 320 4 98 104 281 238 130
7 3 359 357 350 345 82 38 72 193 9 344 358 36 41 52 19 8 19 50 29 3 316 335 46 7 351 344 28 23 49 276 296 300 298 295 258 265 281 255 229 196 272 353
8 5 3 1 359 351 63 88 53 352 348 346 21 11 357 51 6 15 37 40 355 346 43 3 315 358 3 266 349 31 359 293 331 297 284 280 277 271 262 241 255 264 228 142
13 7 9 7 8 9 56 331 350 95 322 3 66 26 15 21 25 25 47 0 345 19 347 314 275 246 244 250 302 353 291 300 354 269 350 305 17 338 315 79 43 41 61 343
17 14 15 12 8 23 106 306 72 55 4 60 61 46 14 12 354 269 302 19 16 296 305 297 282 254 250 239 245 196 251 333 325 277 349 252 120 24 61 86 59 47 38 17
23 19 18 16 12 11 48 345 56 60 31 3 24 12 9 7 349 349 11 11 273 314 328 334 335 336 44 253 227 217 203 176 277 238 259 251 19 11 342 321 47 28 20 348
27 24 21 20 15 9 41 10 50 62 103 320 23 6 7 46 356 353 343 345 315 337 344 5 339 308 295 340 333 88 170 191 158 78 353 279 39 346 335 315 163 357 337 326
23 18 18 18 17 15 48 325 34 70 77 292 54 71 324 20 47 268 311 328 330 28 4 319 246 270 300 324 8 339 355 109 231 254 233 233 4 353 329 265 333 330 331 323
359 13 9 17 20 19 49 283 33 96 51 284 338 1 10 344 107 153 276 11 350 353 27 345 336 351 355 347 319 7 11 357 334 356 298 245 357 5 44 269 284 312 332 287
158 122 344 351 9 14 51 21 355 36 124 244 293 237 237 206 189 145 281 205 348 247 52 19 14 336 337 201 263 315 276 138 227 189 241 316 3 319 252 254 276 295 295 294
171 183 290 316 334 352 98 119 312 36 7 310 5 263 277 200 206 166 154 275 199 40 145 191 221 245 157 237 254 263 315 326 280 5 294 297 302 305 4 271 284 296 296 322
237 257 271 297 317 296 159 120 197 90 273 83 281 325 301 272 189 188 190 203 318 80 93 151 184 184 188 233 237 197 225 326 254 270 280 302 296 305 310 329 352 344 352 7
248 254 266 278 279 288 208 214 216 166 126 225 285 310 260 346 192 224 202 193 177 149 39 166 233 236 217 252 279 249 185 220 183 259 256 234 260 283 309 354 357 5 2 350
256 252 264 258 222 124 48 346 331 180 173 91 315 285 298 313 303 224 195 173 171 142 146 217 244 256 155 245 246 234 225 239 189 246 230 241 261 244 26 27 19 3 355 345
256 254 255 246 183 114 162 186 229 114 79 86 297 297 280 253 23 9 65 33 128 136 178 231 220 227 208 244 252 221 287 277 276 283 291 33 25 19 41 33 8 356 346 346
248 239 207 187 175 88 334 242 165 109 86 66 256 267 322 175 239 225 336 95 45 206 218 259 212 267 176 248 254 234 245 254 269 171 68 101 79 46 43 23 354 347 345 348
194 155 129 71 73 169 241 240 155 81 129 202 208 229 262 340 219 122 38 137 233 221 221 230 145 219 226 237 242 213 249 240 184 60 40 40 26 6 15 357 334 353 349 343
121 72 85 297 233 250 27 28 68 208 252 225 231 187 254 112 36 314 123 186 233 256 239 158 218 248 253 254 247 227 214 156 121 80 347 356 357 354 339 323 345 357 344 349
78 113 182 200 268 87 61 221 203 182 256 226 218 205 233 289 162 207 197 212 230 253 264 153 261 265 245 259 239 144 134 134 110 117 120 111 137 305 300 331 0 360 355 2
177 150 143 84 137 195 207 208 248 194 231 217 192 213 184 250 113 108 282 218 211 250 233 222 273 256 274 137 136 137 133 126 114 116 124 136 276 287 336 352 3 8 351 2
87 81 140 166 184 212 203 204 212 204 211 211 189 169 145 32 48 192 130 228 233 7 304 230 236 260 94 161 151 147 140 122 126 129 133 121 298 42 13 330 29 19 353 7
164 168 183 193 192 225 201 189 185 218 184 176 147 148 140 167 105 196 220 230 138 245 256 235 255 250 220 191 186 145 158 142 150 177 200 243 271 263 309 315 11 33 8 357
187 190 208 209 213 225 210 202 199 219 169 135 91 56 113 193 219 193 170 264 229 218 225 225 236 247 161 182 186 174 163 168 181 217 227 241 250 283 273 290 118 37 352 346
190 207 227 232 152 247 282 204 214 188 140 89 90 138 181 232 187 164 209 174 219 231 222 233 206 217 200 193 187 182 175 174 195 213 219 217 204 245 249 226 148 359 290 329
195 200 180 225 243 192 203 188 198 155 131 179 154 185 204 137 215 223 202 213 195 227 247 231 222 212 209 207 189 186 183 199 211 207 191 206 233 220 244 206 260 284 264 342